Regional Weather Roundup
Issued by NWS

Home | Current Version | Previous Version | Graphics & Text | Print | Product List | Glossary Off
Versions: 1 2 3 4 5 6 7 8 9 10 11 12 13 14 15 16 17 18 19 20 21 22 23 24 25 26 27 28 29 30 31 32 33 34 35 36 37 38 39 40 41 42 43 44 45 46 47 48 49 50

000
ASUS43 KMKX 270100
RWRWI

WISCONSIN REGIONAL WEATHER ROUNDUP
NATIONAL WEATHER SERVICE MILWAUKEE/SULLIVAN WI
800 PM CDT TUE JUL 26 2016

NOTE: "FAIR" INDICATES FEW OR NO CLOUDS BELOW 12,000 FEET WITH NO
SIGNIFICANT WEATHER AND/OR OBSTRUCTIONS TO VISIBILITY.

WIZ001-002-006>008-014>016-023>028-270200-
NORTHWEST WISCONSIN

CITY           SKY/WX    TMP DP  RH WIND       PRES   REMARKS
SUPERIOR ARPT  CLOUDY    78  71  77 W7        29.94R HX  81
ASHLAND        CLOUDY    80  69  69 W6        29.94R HX  83
HAYWARD        CLEAR     79  69  71 CALM      29.97R HX  81
SIREN          CLOUDY    79  68  69 CALM      29.96S HX  81
CUMBERLAND     CLEAR     79  66  65 W6        29.97S HX  81
RICE LAKE      CLEAR     80  68  65 SW5       29.98S HX  82
CHETEK         CLEAR     81  69  68 MISG      29.96S HX  84
LADYSMITH      CLEAR     81  67  63 SW5       29.98F HX  83
EAU CLAIRE     NOT AVBL
MENOMONIE      CLEAR     84  66  54 S5        29.97S HX  86
NEW RICHMOND   PTCLDY    81  64  57 W7        29.97S HX  83
OSCEOLA        CLOUDY    82  67  61 W5        29.99R HX  84
$$

WIZ003>005-009-010-017-018-270200-
NORTH CENTRAL WISCONSIN

CITY           SKY/WX    TMP DP  RH WIND       PRES   REMARKS
MANITOWISH WTR RAIN      71  67  87 N3        29.98R
ARBOR VITAE    CLOUDY    82  66  57 W8        29.98S HX  84
WOODRUFF       CLOUDY    82  66  57 W8        29.98S HX  84
RHINELANDER    CLEAR     79  65  62 W7        29.99R HX  81
EAGLE RIVER    CLOUDY    76  58  52 NW17G28   29.99R
LAND O LAKES   CLOUDY    66  63  88 S3        30.03R
PHILLIPS       CLOUDY    81  67  63 SW6       29.97S HX  83
TOMAHAWK       CLEAR     80  62  53 W5        29.98S HX  82
MEDFORD        CLEAR     79  67  66 SW6       29.99S HX  81
MERRILL        CLEAR     82  66  58 W9        29.99R HX  84
$$

WIZ029-030-035-036-043>047-270200-
CENTRAL WISCONSIN

CITY           SKY/WX    TMP DP  RH WIND       PRES   REMARKS
WAUSAU         CLEAR     80  66  62 SW8       29.96F HX  82
MOSINEE        CLEAR     79  66  65 SW7       30.00S HX  81
MARSHFIELD     CLEAR     79  67  66 SW7       29.99S HX  81
STEVENS POINT  CLEAR     82  65  57 W6        29.99S HX  84
WAUPACA        CLEAR     85  67  54 SW5       29.98S HX  87
WAUTOMA        CLEAR     82  69  64 SW5       29.99S HX  85
WISC RAPIDS    CLEAR     82  65  56 SW6       29.99F HX  84
CAMP DOUGLAS   NOT AVBL
$$

WIZ011>013-019>022-031-037>040-048>050-270200-
NORTHEAST WISCONSIN

CITY           SKY/WX    TMP DP  RH WIND       PRES   REMARKS
ANTIGO         CLEAR     79  65  64 CALM      29.99S HX  80
SHAWANO        CLEAR     85  65  51 W6        29.96S HX  87
OCONTO         CLEAR     82  70  67 SW5       29.93S HX  85
STURGEON BAY   CLEAR     81  68  64 SW9       29.95F HX  84
GREEN BAY      CLEAR     80  70  71 SW6       29.96S HX  83
MANITOWOC      NOT AVBL
APPLETON       PTCLDY    81  64  57 SW7       29.97R HX  82
CLINTONVILLE   CLEAR     82  64  54 SW5       29.97S HX  84
OSHKOSH        CLEAR     80  67  64 SW5       29.98R HX  82
$$

WIZ032>034-041-042-053>061-270200-
SOUTHWEST WISCONSIN

CITY           SKY/WX    TMP DP  RH WIND       PRES   REMARKS
LA CROSSE      CLEAR     84  68  58 S8        29.97F HX  87
SPARTA         CLEAR     82  69  65 SW5       30.00F HX  85
VIROQUA        CLEAR     80  68  65 SW3       30.04R HX  82
BOSCOBEL       CLEAR     82  69  64 CALM      30.01S HX  85
PRAIRIE DU CHI CLEAR     82  64  55 CALM      30.01S HX  83
PLATTEVILLE    CLEAR     80  71  73 CALM      30.04S HX  83
$$

WIZ056-057-062-063-064-067-068-270200-
SOUTH CENTRAL WISCONSIN

CITY           SKY/WX    TMP DP  RH WIND       PRES   REMARKS
REEDSBURG      CLEAR     81  69  67 S6        30.00S HX  84
BARABOO/DELLS  CLEAR     80  66  63 SW5       30.00F HX  82
LONE ROCK      NOT AVBL
MINERAL POINT  CLEAR     81  64  57 CALM      30.04S HX  82
MADISON        PTCLDY    81  65  58 SW3       30.01S HX  83
MIDDLETON      CLEAR     83  64  54 SW3       30.02F HX  84
WATERTOWN      CLEAR     81  67  61 CALM      30.01S HX  83
MONROE         CLEAR     81  63  54 CALM      30.04S HX  82
JANESVILLE     CLEAR     82  64  54 CALM      30.01S HX  84
$$

WIZ051-052-058>065-066-070>072-270200-
SOUTHEAST WISCONSIN

CITY           SKY/WX    TMP DP  RH WIND       PRES   REMARKS
MILWAUKEE      PTCLDY    80  61  52 S8        30.00F HX  81
WAUKESHA       CLEAR     79  61  53 CALM      30.02F HX  80
MILWAUKEE/TIMM CLEAR     82  55  39 SE6       30.01S HX  82
RACINE         CLEAR     79  63  57 S7        30.02F HX  80
BURLINGTON     CLEAR     81  64  57 W3        30.02R HX  82
KENOSHA        CLEAR     79  63  57 SE6       30.02S HX  80
FOND DU LAC    CLEAR     80  67  64 CALM      29.99S HX  82
SHEBOYGAN      CLEAR     78  64  61 S8        29.98S HX  80
WEST BEND      CLEAR     81  63  54 SW3       30.00F HX  82
JUNEAU         CLEAR     79  69  72 S6        30.02S HX  82
$$

LSZ147-162-270200-
LAKE SUPERIOR

STATION/POSITION TIME  TEMP    WIND        PRES    WAVE
                       AIR SEA DIR/SP/G            HT/PER
                 (UTC) (F)     (DEG/KT/KT) (MB)    (FT/S)
W MID LAKE BUOY  2350   70 66  290/  6/  8 1012.1F   0
DEVILS ISLAND    0000   71     230/ 12/ 13 1012.7F
SAXON HARBOR     0040   81      CALM  /  1 1013.2F
$$

LMZ867-665-643>646-270200-
LAKE MICHIGAN

STATION/POSITION TIME  TEMP    WIND        PRES    WAVE
                       AIR SEA DIR/SP/G            HT/PER
                 (UTC) (F)     (DEG/KT/KT) (MB)    (FT/S)
CHAMBERS ISLAND  0000   81     190/  5/ 14 1012.9F
S GREEN BAY BUOY 0000   80 76  210/ 10/ 12   N/A
N MID LAKE BUOY  2350   73 70  210/ 16/ 19 1012.4F   2/ 4
NORTHPORT PIER   0000   82     160/  3/  6 1013.2R
SISTER BAY       2321   84     240/ 15/ 18   N/A
ALGOMA LAKESHORE 2343          210/  9/ 12   N/A
KEWAUNEE LAKESHO 0018   65                   N/A
SHEBOYGAN LAKESH 0000   78     180/ 14/ 15 1015.2F
PORT WASHINGTON  0000   74     200/  5/  8 1016.3F
ATWATER BUOY     0000   69 62  190/  6/  6 1017.8R
MILWAUKEE LAKESH 0010   76     150/ 10/ 10   N/A
S MID LAKE BUOY  2350   78 78   CALM  /  2 1015.5S   0
KENOSHA   LAKESH 0000   77     170/  7/  8 1015.9R
$$

TC  - TEMPERATURE IN CELSIUS
VSB - VISIBILITY IN STATUTE MILES
WCI - WIND CHILL INDEX
HX  - HEAT INDEX





USA.gov is the U.S. government's official web portal to all federal, state and local government web resources and services.